WGS F9 (USA 275)

Last updated on Jan. 19, 2020, 4:37 a.m. UTC

1 42075U 17016A   20018.53260163  .00000069  00000-0  00000-0 0  9995
2 42075   0.0084  46.3965 0000529  18.1887 301.3007  1.00270343 10425
UTC
Height (km)
Latitude
Longitude
Inclination
Orbital Period
UTC large
Height (km)
Speed (km/s)
/
Latitude / Longitude
Inclination (degrees)
Orbital Period (minutes)
Azimuth
Elevation
Range (km)
Doppler Factor
iOS Compass Heading
iOS Angle

Next 30 passes for location: Hong Kong

Rise time Rise Azimuth (degrees) Set time Set Azimuth (degrees) Duration Max altitude (degrees)

No matching passes for this satellites